Home > Weather > Overland Park > Past weeks

Flag for USA Past Weather in Overland Park, Kansas, USA — Yesterday and Last 2 Weeks

Now
83 °F

Sunny.


Feels Like: 86 °F
Forecast: 70 / 87 °F
Wind: 7 mph from East

Location: Johnson County Executive Airport

Current Time: Jul 25, 2016 at 7:41:37 PM

Latest Report: Jul 25, 2016 at 6:53 PM


Visibility: 10 mi

Pressure: 29.99 "Hg

Humidity: 63%

Dew Point: 69 °F

Location of Overland ParkLocation

Past Weather in Overland Park — Graph

°F

Overland Park Temperature Yesterday

Maximum temperature yesterday: 94 °F (at 1:53 PM)
Minimum temperature yesterday: 77 °F (at 4:53 AM)
Average temperature yesterday: 85 °F

High & Low Weather Summary for the Past Weeks

 TemperatureHumidityPressure
High94 °F (Jul 21, 2:53 PM)100% (Jul 14, 3:53 AM)30.18 "Hg (Jul 14, 3:53 AM)
Low64 °F (Jul 12, 6:00 AM)48% (Jul 21, 2:53 PM)29.71 "Hg (Jul 11, 5:53 PM)
Average80 °F75%29.97 "Hg
* Reported Jul 10 5:53 PM — Jul 25 5:53 PM, Overland Park, Weather by CustomWeather, © 2016

Note: Actual official high and low records may vary slightly from our data, if they occured in-between our weather recording intervals... More about our weather records

Advertising

Overland Park Weather History for the Previous 24 Hours

Scroll right to see more
 ConditionsComfort  
Time TempWeatherWind HumidityBarometerVisibility
5:53 PM
Mon, Jul 25
83 °FPassing clouds.7 mph63%29.99 "Hg10 mi
4:53 PM82 °FPassing clouds.5 mph67%29.99 "Hg10 mi
3:53 PM81 °FPassing clouds.10 mph69%29.99 "Hg10 mi
2:53 PM79 °FPassing clouds.14 mph74%29.98 "Hg10 mi
1:53 PM78 °FSunny.12 mph76%30.00 "Hg10 mi
12:53 PM76 °FScattered clouds.5 mph82%30.02 "Hg10 mi
11:53 AM74 °FOvercast.6 mph85%30.06 "Hg10 mi
10:53 AM75 °FOvercast.5 mph85%30.08 "Hg10 mi
9:53 AM75 °FOvercast.No wind82%30.07 "Hg10 mi
8:53 AM74 °FSunny.No wind85%30.04 "Hg10 mi
7:53 AM74 °FPassing clouds.7 mph85%30.02 "Hg10 mi
6:53 AM73 °FClear.8 mph88%30.00 "Hg10 mi
5:53 AM74 °FThundershowers. Passing clouds.5 mph88%30.01 "Hg10 mi
4:53 AM74 °FThunderstorms. Mostly cloudy.No wind91%30.00 "Hg8 mi
3:53 AM77 °FThundershowers. Passing clouds.6 mph79%29.98 "Hg10 mi
2:53 AM78 °FThundershowers. Passing clouds.6 mph76%29.96 "Hg10 mi
1:53 AM78 °FPassing clouds.3 mph79%29.94 "Hg10 mi
12:53 AM78 °FPassing clouds.3 mph79%29.94 "Hg10 mi
11:53 PM
Sun, Jul 24
81 °FPassing clouds.9 mph74%29.95 "Hg10 mi
10:53 PM81 °FPassing clouds.10 mph74%29.96 "Hg10 mi
9:53 PM82 °FPartly cloudy.10 mph74%29.94 "Hg10 mi
8:53 PM85 °FPassing clouds.9 mph77%29.92 "Hg10 mi
7:53 PM87 °FSunny.8 mph69%29.90 "Hg10 mi
Weather by CustomWeather, © 2016

See weather overviewHow to use our weather pages